[[{"header":{"parameterUnit":"m.s-1","parameterCategory":1,"la1":30.2991,"la2":30.254,"lo1":-89.0895,"lo2":-89.0444,"dy":0.0017,"dx":0.0017,"nx":28,"ny":28,"refTime":"2024-12-24T03:00:00:Z","depth":0,"parameterNumber":2,"parameterNumberName":"U-component_of_WINDS"},"data":[0,0,0,0,0,0,0,0,0,0,0,0,0,0,0,0,0,0,0,0,0,0,0,0,0,0,0,0,0,0,0,0,0,0,0,0,0,0,0,0,0,0,0,0,0,0,0,0,0,0,0,0,0,0,0,0,0,0,-4.381,-4.381,0,-4.3811,-4.3811,-4.3811,-4.3632,-4.3627,-4.3622,-4.3618,-4.3622,-4.3626,-4.363,0,0,0,0,0,0,0,0,0,0,0,0,0,-4.3653,-4.3657,-4.381,-4.381,-4.381,-4.3811,-4.3811,-4.3811,-4.3633,-4.3627,-4.3621,-4.3616,-4.362,-4.3625,-4.3631,0,0,0,0,0,0,0,0,0,0,0,0,0,-4.3695,-4.3658,-4.381,-4.3721,-4.3713,-4.3811,-4.3811,-4.3811,-4.3634,-4.3627,-4.362,-4.3613,-4.3618,-4.3625,-4.3631,-4.3815,0,0,-4.3652,-4.3655,0,0,0,0,0,0,0,0,-4.3693,-4.3701,-4.3734,-4.3727,-4.3718,-4.3714,-4.3757,-4.3812,-4.3636,-4.3664,-4.3618,-4.361,-4.3658,-4.3661,-4.3677,-4.3815,-4.3815,-4.3653,-4.3657,-4.366,-4.3662,0,0,0,0,0,0,0,-4.369,-4.37,-4.381,-4.3735,-4.3725,-4.3681,-4.3679,-4.3767,-4.3701,-4.3661,-4.3648,-4.3651,-4.3653,-4.3671,-4.3676,-4.3815,-4.3653,-4.3659,-4.3663,-4.3665,-4.4104,-4.4111,0,0,0,0,0,0,-4.3699,-4.3698,-4.381,-4.381,-4.3688,-4.369,-4.3687,-4.3723,-4.3699,-4.3689,-4.3657,-4.3642,-4.3663,-4.3668,-4.3675,-4.3889,-4.366,-4.3666,-4.367,-4.4096,-4.4105,-4.4113,0,0,0,0,0,0,-4.3696,-4.3711,-4.381,-4.3751,-4.376,-4.37,-4.3741,-4.3726,-4.3744,-4.3696,-4.3684,-4.3688,-4.3658,-4.3666,-4.3781,-4.3886,-4.3669,-4.3675,-4.4087,-4.4099,-4.4109,-4.4317,0,0,0,0,0,0,-4.3693,-4.3711,-4.378,-4.3754,-4.3764,-4.3917,-4.3747,-4.3732,-4.3756,-4.3738,-4.3722,-4.3712,-4.3653,-4.3772,-4.3788,-4.3892,-4.368,-4.4077,-4.4092,-4.4106,-4.4301,-4.4334,-4.4363,0,0,0,0,0,-4.3688,-4.3839,-4.3785,-4.3799,-4.3849,-4.3923,-4.3929,-4.3856,-4.3766,-4.3835,-4.3803,-4.3713,-4.3872,-4.3786,-4.3802,-4.3909,-4.4071,-4.4088,-4.4105,-4.4287,-4.4328,-4.4362,0,0,0,0,0,0,-4.3881,-4.3834,-4.3773,-4.392,-4.3927,-4.3893,-4.3978,-4.3902,-4.3935,-4.3916,-4.3825,-4.3823,-4.3954,-4.3942,-4.3847,-4.4085,-4.3955,-4.3976,-4.4088,-4.4127,-4.4157,-4.4158,-4.3686,0,0,0,0,0,-4.394,-4.4004,-4.3959,-4.4094,-4.41,-4.4039,-4.4068,-4.4012,-4.4015,-4.4017,-4.3994,-4.4002,-4.4053,-4.4089,-4.4133,-4.4298,-4.4292,-4.4379,-4.441,-4.4436,-4.4456,-4.4542,-4.4581,-4.417,-4.4169,-4.4169,0,0,-4.4064,-4.4046,-4.4092,-4.4132,-4.413,-4.4199,-4.4042,-4.4121,-4.4171,-4.4029,-4.4137,-4.4121,-4.4122,-4.4264,-4.4324,-4.4258,-4.4568,-4.4458,-4.4479,-4.4485,-4.4564,-4.4603,-4.4637,-4.4181,-4.4179,-4.4177,0,0,-4.4325,-4.4318,-4.4428,-4.443,-4.4429,-4.4387,-4.4414,-4.4391,-4.4374,-4.448,-4.4376,-4.4433,-4.4524,-4.4529,-4.4544,-4.4806,-4.4724,-4.4823,-4.4986,-4.5071,-4.5104,-4.5132,-4.5226,-4.5261,-4.4842,-4.4843,-4.4843,0,-4.4479,-4.4577,-4.4495,-4.4581,-4.4602,-4.4475,-4.4587,-4.4592,-4.4607,-4.4624,-4.4549,-4.4659,-4.4652,-4.4792,-4.4856,-4.4872,-4.49,-4.4825,-4.5105,-4.5133,-4.5158,-4.5247,-4.5282,-4.4855,-4.4854,-4.4852,-4.4851,0,-4.4767,-4.4837,-4.4926,-4.4943,-4.4973,-4.5072,-4.5005,-4.5046,-4.4986,-4.4952,-4.5062,-4.5048,-4.5088,-4.5116,-4.506,-4.5249,-4.5208,-4.5121,-4.4989,-4.5211,-4.5293,-4.5326,-4.4872,-4.4868,-4.4864,-4.4861,0,0,-4.5151,-4.512,-4.5154,-4.516,-4.5149,-4.5201,-4.5294,-4.5331,-4.5368,-4.5382,-4.5458,-4.5537,-4.5455,-4.5472,-4.5415,-4.5489,-4.5698,-4.5392,-4.5391,-4.5451,-4.5906,-4.5973,-4.6014,-4.5643,-4.5649,-4.5654,-4.5906,0,-4.5404,-4.556,-4.5489,-4.5653,-4.5716,-4.5596,-4.5676,-4.5679,-4.565,-4.5699,-4.5666,-4.5724,-4.5612,-4.5621,-4.569,-4.5659,-4.5789,-4.5639,-4.5713,-4.5717,-4.5718,-4.6056,-4.6127,-4.6366,-4.5938,-4.5943,-4.5947,0,-4.5721,-4.5747,-4.5918,-4.5894,-4.5918,-4.5992,-4.602,-4.6069,-4.6069,-4.6042,-4.6061,-4.5986,-4.6075,-4.5943,-4.6065,-4.5965,-4.5991,-4.598,-4.5987,-4.5992,-4.5847,-4.6071,-4.644,-4.6477,-4.5996,-4.5992,-4.5989,0,-4.5985,-4.6062,-4.6174,-4.6182,-4.6158,-4.6213,-4.6206,-4.6198,-4.6225,-4.625,-4.6267,-4.6303,-4.6323,-4.6352,-4.6288,-4.6198,-4.6419,-4.6282,-4.64,-4.6402,-4.6453,-4.6451,-4.6833,-4.6469,-4.6469,-4.6468,-4.6467,0,-4.6275,-4.6385,-4.6292,-4.6361,-4.648,-4.6396,-4.6516,-4.6495,-4.649,-4.6553,-4.6451,-4.6513,-4.6425,-4.6478,-4.6428,-4.6537,-4.6547,-4.6528,-4.6514,-4.6538,-4.6541,-4.6555,-4.6537,-4.6477,-4.6475,-4.6473,-4.6472,0,-4.6591,-4.6533,-4.6647,-4.6614,-4.6609,-4.6698,-4.667,-4.6732,-4.6695,-4.6776,-4.679,-4.6733,-4.6789,-4.6729,-4.6781,-4.6748,-4.6895,-4.6856,-4.6895,-4.6885,-4.7007,-4.6997,-4.7412,-4.7462,-4.7066,-4.7069,-4.7073,0,-4.6781,-4.6862,-4.6837,-4.6872,-4.687,-4.6928,-4.6954,-4.6875,-4.6907,-4.6912,-4.6975,-4.7023,-4.7057,-4.7154,-4.7117,-4.7157,-4.7118,-4.7261,-4.7124,-4.7145,-4.7121,-4.7118,-4.7126,-4.729,-4.7294,-4.7298,-4.7301,0,-4.7124,-4.7091,-4.7133,-4.7166,-4.7201,-4.7223,-4.7237,-4.7271,-4.7188,-4.723,-4.7286,-4.7313,-4.7366,-4.7416,-4.7444,-4.7436,-4.7357,-4.7344,-4.7374,-4.74,-4.742,-4.7411,-4.6973,-4.7336,-4.7332,-4.733,-4.7328,-4.7326,-4.7383,-4.7449,-4.7442,-4.7492,-4.7494,-4.751,-4.7567,-4.7536,-4.7582,-4.7619,-4.7569,-4.7639,-4.7636,-4.7666,-4.7668,-4.7722,-4.7661,-4.7704,-4.7715,-4.7727,-4.7746,-4.741,-4.7727,-4.7726,-4.7725,-4.7724,-4.7723,0,-4.7721,-4.771,-4.7757,-4.778,-4.782,-4.7739,-4.775,-4.7789,-4.7852,-4.7856,-4.7891,-4.7956,-4.8003,-4.797,-4.8009,-4.8059,-4.8023,-4.8072,-4.8069,-4.8068,-4.7798,-4.7768,-4.8101,-4.8101,-4.8101,-4.8101,-4.8101,-4.81,-4.7902,-4.801,-4.7976,-4.8084,-4.8072,-4.814,-4.8153,-4.8167,-4.8169,-4.8247,-4.8285,-4.8262,-4.8251,-4.8289,-4.8328,-4.8317,-4.8337,-4.84,-4.8376,-4.8124,-4.8087,-4.8052,-4.8024,-4.8405,-4.8405,-4.8642,-4.8644,-4.8646]},{"header":{"parameterUnit":"m.s-1","parameterCategory":1,"la1":30.2991,"la2":30.254,"lo1":-89.0895,"lo2":-89.0444,"dy":0.0017,"dx":0.0017,"nx":28,"ny":28,"refTime":"2024-12-24T03:00:00:Z","depth":0,"parameterNumber":3,"parameterNumberName":"V-component_of_WINDS"},"data":[0,0,0,0,0,0,0,0,0,0,0,0,0,0,0,0,0,0,0,0,0,0,0,0,0,0,0,0,0,0,0,0,0,0,0,0,0,0,0,0,0,0,0,0,0,0,0,0,0,0,0,0,0,0,0,0,0,0,-1.6157,-1.6157,0,-1.6226,-1.6226,-1.6227,-1.6234,-1.6233,-1.6232,-1.6231,-1.6302,-1.6304,-1.6307,0,0,0,0,0,0,0,0,0,0,0,0,0,-1.6028,-1.6031,-1.6156,-1.6157,-1.6158,-1.6225,-1.6226,-1.6227,-1.6234,-1.6233,-1.6232,-1.6231,-1.6301,-1.6304,-1.6307,0,0,0,0,0,0,0,0,0,0,0,0,0,-1.6089,-1.6031,-1.6156,-1.6169,-1.6171,-1.6225,-1.6226,-1.6228,-1.6234,-1.6233,-1.6232,-1.6231,-1.63,-1.6303,-1.6307,-1.6353,0,0,-1.6319,-1.632,0,0,0,0,0,0,0,0,-1.6086,-1.6094,-1.6167,-1.6169,-1.6171,-1.622,-1.6207,-1.6269,-1.6234,-1.621,-1.6231,-1.623,-1.6275,-1.6281,-1.6296,-1.6356,-1.6359,-1.6319,-1.6321,-1.6323,-1.6324,0,0,0,0,0,0,0,-1.6082,-1.6091,-1.6184,-1.6168,-1.617,-1.6171,-1.6179,-1.6219,-1.6248,-1.6212,-1.6213,-1.6221,-1.6276,-1.6293,-1.6298,-1.636,-1.6319,-1.6322,-1.6325,-1.6326,-1.6459,-1.646,0,0,0,0,0,0,-1.6075,-1.6087,-1.6182,-1.6186,-1.6125,-1.6175,-1.6183,-1.6205,-1.6247,-1.6253,-1.6222,-1.6221,-1.6287,-1.6294,-1.63,-1.6356,-1.6323,-1.6327,-1.6329,-1.6457,-1.6459,-1.646,0,0,0,0,0,0,-1.6072,-1.6083,-1.6179,-1.6137,-1.6149,-1.6178,-1.6203,-1.6207,-1.6224,-1.6255,-1.626,-1.6233,-1.6286,-1.6295,-1.6339,-1.6358,-1.6328,-1.6332,-1.6456,-1.6458,-1.646,-1.6467,0,0,0,0,0,0,-1.6069,-1.6082,-1.61,-1.6137,-1.6151,-1.6217,-1.6204,-1.6209,-1.623,-1.623,-1.6267,-1.6272,-1.6286,-1.6334,-1.6343,-1.6363,-1.6335,-1.6454,-1.6457,-1.6459,-1.6465,-1.6468,-1.6471,0,0,0,0,0,-1.6064,-1.61,-1.6101,-1.6113,-1.6175,-1.6218,-1.6226,-1.6241,-1.6232,-1.625,-1.6269,-1.6271,-1.6354,-1.6338,-1.6349,-1.637,-1.6453,-1.6456,-1.6459,-1.6463,-1.6468,-1.6471,0,0,0,0,0,0,-1.6065,-1.6105,-1.6107,-1.6156,-1.6184,-1.6219,-1.6242,-1.6246,-1.6277,-1.6275,-1.6292,-1.6301,-1.6344,-1.6361,-1.6342,-1.6415,-1.6403,-1.6408,-1.6402,-1.6407,-1.641,-1.6405,-1.6338,0,0,0,0,0,-1.607,-1.6103,-1.6136,-1.6176,-1.619,-1.6214,-1.6233,-1.6242,-1.6272,-1.6283,-1.6306,-1.6334,-1.6367,-1.6388,-1.642,-1.6467,-1.6475,-1.6487,-1.649,-1.6493,-1.6497,-1.6522,-1.6528,-1.6469,-1.6469,-1.6469,0,0,-1.6083,-1.6109,-1.6128,-1.6177,-1.6199,-1.6232,-1.6223,-1.6258,-1.6282,-1.6289,-1.6332,-1.6349,-1.6382,-1.6427,-1.6449,-1.6443,-1.6515,-1.6496,-1.6498,-1.6501,-1.6526,-1.6531,-1.6536,-1.6471,-1.6471,-1.6471,0,0,-1.6122,-1.6145,-1.618,-1.6203,-1.6237,-1.6252,-1.626,-1.6295,-1.6307,-1.6351,-1.6356,-1.6384,-1.644,-1.6463,-1.6481,-1.6527,-1.6529,-1.6537,-1.6555,-1.6579,-1.6584,-1.6588,-1.6603,-1.6609,-1.6541,-1.6541,-1.6541,0,-1.6133,-1.6182,-1.6198,-1.6233,-1.6253,-1.626,-1.6295,-1.6316,-1.6359,-1.6372,-1.6366,-1.6435,-1.6457,-1.6508,-1.6519,-1.6534,-1.6544,-1.6533,-1.6582,-1.6586,-1.659,-1.6605,-1.6611,-1.6542,-1.6542,-1.6542,-1.6541,0,-1.6194,-1.6228,-1.6252,-1.6293,-1.6316,-1.6351,-1.6371,-1.6393,-1.64,-1.6415,-1.6459,-1.6486,-1.6522,-1.6535,-1.6542,-1.6586,-1.6582,-1.6578,-1.6566,-1.6596,-1.6611,-1.6617,-1.6543,-1.6542,-1.6542,-1.6542,0,0,-1.6236,-1.6284,-1.6292,-1.631,-1.6348,-1.6374,-1.6408,-1.6444,-1.6462,-1.6491,-1.652,-1.6566,-1.6563,-1.6584,-1.6594,-1.6615,-1.6649,-1.6609,-1.661,-1.6615,-1.6698,-1.67,-1.6707,-1.665,-1.6651,-1.6652,-1.6695,0,-1.6278,-1.634,-1.6355,-1.6408,-1.6439,-1.6445,-1.6475,-1.6501,-1.6516,-1.6544,-1.6561,-1.6594,-1.6587,-1.66,-1.6621,-1.664,-1.6666,-1.6637,-1.6677,-1.6678,-1.6668,-1.6714,-1.6717,-1.6756,-1.6701,-1.6702,-1.6702,0,-1.6337,-1.6367,-1.6423,-1.6455,-1.6468,-1.6495,-1.6528,-1.6555,-1.6584,-1.6594,-1.6617,-1.6624,-1.6659,-1.6645,-1.6694,-1.6674,-1.6691,-1.6702,-1.6704,-1.6708,-1.6692,-1.6719,-1.6769,-1.6775,-1.6712,-1.6711,-1.671,0,-1.6361,-1.6415,-1.6455,-1.647,-1.6509,-1.6528,-1.6544,-1.6572,-1.6592,-1.6621,-1.6634,-1.6667,-1.6685,-1.671,-1.6725,-1.6714,-1.6772,-1.6759,-1.678,-1.678,-1.6793,-1.6792,-1.6845,-1.6804,-1.6804,-1.6804,-1.6804,0,-1.6407,-1.6441,-1.6466,-1.6491,-1.6529,-1.6544,-1.6581,-1.6598,-1.6622,-1.665,-1.6657,-1.6683,-1.6702,-1.673,-1.6742,-1.678,-1.6788,-1.6796,-1.6799,-1.6795,-1.6794,-1.6807,-1.6804,-1.6805,-1.6805,-1.6805,-1.6804,0,-1.644,-1.6459,-1.6503,-1.6536,-1.6545,-1.6571,-1.6599,-1.6622,-1.6638,-1.6672,-1.6681,-1.6705,-1.6738,-1.6756,-1.6798,-1.6806,-1.6848,-1.685,-1.6838,-1.6839,-1.6859,-1.6857,-1.6923,-1.6932,-1.6885,-1.6885,-1.6885,0,-1.6469,-1.6495,-1.653,-1.6549,-1.6566,-1.6597,-1.6617,-1.6633,-1.6654,-1.6688,-1.6707,-1.6741,-1.6769,-1.6821,-1.6842,-1.6874,-1.6876,-1.6896,-1.6881,-1.6876,-1.6875,-1.6873,-1.6876,-1.6899,-1.69,-1.69,-1.69,0,-1.6516,-1.6524,-1.6553,-1.6585,-1.6609,-1.6635,-1.6661,-1.6676,-1.6696,-1.6719,-1.6753,-1.6775,-1.6817,-1.685,-1.6883,-1.69,-1.6903,-1.6905,-1.6912,-1.6908,-1.69,-1.6904,-1.6845,-1.6904,-1.6903,-1.6903,-1.6903,-1.6903,-1.6547,-1.657,-1.6599,-1.6631,-1.6652,-1.6675,-1.6699,-1.6717,-1.6745,-1.6781,-1.6788,-1.6824,-1.6851,-1.6896,-1.6913,-1.6941,-1.6937,-1.6946,-1.6949,-1.6951,-1.6951,-1.6896,-1.6947,-1.6947,-1.6947,-1.6947,-1.6947,0,-1.6595,-1.6613,-1.6642,-1.6678,-1.6703,-1.6704,-1.6732,-1.6753,-1.6784,-1.6809,-1.6836,-1.6874,-1.6906,-1.6929,-1.6961,-1.6979,-1.6981,-1.6986,-1.6985,-1.6989,-1.6954,-1.6944,-1.6984,-1.6984,-1.6984,-1.6984,-1.6984,-1.6984,-1.6622,-1.6661,-1.6672,-1.6721,-1.6738,-1.6773,-1.6789,-1.6811,-1.6831,-1.6873,-1.6899,-1.6914,-1.6938,-1.6972,-1.7,-1.7006,-1.7018,-1.7023,-1.7029,-1.6995,-1.6991,-1.6988,-1.6979,-1.7025,-1.7025,-1.7062,-1.7062,-1.7062]}]]